QPF
0.02 0.02 0.03 0.04 0.04 0.03 0.02 0.02 0.02 0.02 0.02 0.02 0.03 0.05 0.09 0.13 0.10 0.09 0.11 0.11 0.12 0.13 0.09 0.08 0.06 0.05 0.05 0.04 0.05 0.06 0.05 0.03 0.03 0.05 0.05 0.05 0.05 0.05 0.03 0.03 0.05 0.06 0.05
0.02 0.02 0.03 0.02 0.04 0.03 0.02 0.02 0.02 0.02 0.03 0.02 0.04 0.05 0.08 0.12 0.12 0.11 0.11 0.10 0.11 0.11 0.07 0.05 0.05 0.04 0.04 0.06 0.07 0.07 0.04 0.03 0.04 0.06 0.07 0.04 0.04 0.05 0.04 0.04 0.04 0.05 0.05
0.02 0.05 0.03 0.02 0.04 0.03 0.02 0.03 0.02 0.02 0.03 0.03 0.04 0.06 0.08 0.13 0.14 0.13 0.11 0.11 0.10 0.08 0.07 0.06 0.06 0.06 0.06 0.06 0.07 0.07 0.06 0.06 0.07 0.07 0.08 0.05 0.03 0.02 0.03 0.03 0.04 0.04 0.06
0.01 0.01 0.02 0.02 0.04 0.04 0.04 0.05 0.04 0.04 0.05 0.05 0.06 0.06 0.09 0.11 0.09 0.07 0.09 0.10 0.10 0.09 0.10 0.10 0.09 0.08 0.06 0.06 0.05 0.06 0.08 0.09 0.09 0.07 0.06 0.06 0.04 0.03 0.02 0.03 0.04 0.04 0.06
0.00 0.00 0.01 0.02 0.03 0.04 0.04 0.06 0.05 0.07 0.08 0.11 0.12 0.11 0.10 0.09 0.07 0.05 0.06 0.07 0.08 0.10 0.11 0.10 0.06 0.04 0.03 0.05 0.05 0.07 0.08 0.09 0.09 0.09 0.07 0.05 0.05 0.03 0.03 0.03 0.03 0.04 0.05
0.00 0.00 0.01 0.01 0.02 0.03 0.04 0.03 0.03 0.04 0.06 0.08 0.10 0.06 0.05 0.04 0.05 0.05 0.05 0.04 0.04 0.06 0.07 0.05 0.04 0.04 0.06 0.07 0.07 0.08 0.08 0.07 0.07 0.07 0.04 0.04 0.05 0.04 0.05 0.06 0.05 0.05 0.04
0.01 0.01 0.01 0.01 0.01 0.01 0.01 0.02 0.02 0.02 0.02 0.02 0.03 0.04 0.03 0.03 0.03 0.04 0.04 0.05 0.05 0.06 0.06 0.07 0.06 0.07 0.08 0.08 0.07 0.06 0.07 0.06 0.05 0.04 0.03 0.03 0.04 0.05 0.06 0.08 0.08 0.08 0.07
0.02 0.01 0.01 0.01 0.01 0.01 0.01 0.01 0.01 0.02 0.02 0.02 0.02 0.02 0.02 0.02 0.02 0.02 0.02 0.03 0.04 0.06 0.07 0.07 0.07 0.07 0.07 0.06 0.07 0.06 0.06 0.05 0.06 0.03 0.04 0.05 0.04 0.05 0.04 0.05 0.07 0.06 0.05
0.02 0.01 0.01 0.01 0.01 0.00 0.00 0.01 0.01 0.02 0.03 0.03 0.02 0.01 0.01 0.01 0.02 0.02 0.02 0.02 0.03 0.04 0.06 0.04 0.03 0.04 0.05 0.05 0.07 0.08 0.08 0.08 0.08 0.04 0.04 0.04 0.03 0.04 0.03 0.03 0.04 0.06 0.06
0.02 0.01 0.01 0.00 0.00 0.00 0.00 0.01 0.01 0.01 0.02 0.03 0.02 0.01 0.01 0.01 0.01 0.02 0.01 0.01 0.01 0.01 0.02 0.02 0.03 0.03 0.03 0.04 0.06 0.08 0.10 0.09 0.07 0.05 0.03 0.03 0.02 0.02 0.02 0.03 0.05 0.07 0.06
0.02 0.03 0.01 0.00 0.00 0.00 0.00 0.01 0.01 0.01 0.02 0.02 0.02 0.01 0.01 0.01 0.01 0.01 0.01 0.01 0.01 0.01 0.01 0.01 0.02 0.02 0.02 0.03 0.05 0.05 0.06 0.05 0.05 0.03 0.03 0.04 0.04 0.04 0.05 0.05 0.06 0.06 0.08
0.02 0.01 0.01 0.00 0.00 0.01 0.01 0.01 0.01 0.01 0.01 0.02 0.02 0.01 0.01 0.00 0.01 0.01 0.01 0.01 0.02 0.01 0.01 0.01 0.01 0.01 0.02 0.02 0.02 0.02 0.03 0.03 0.04 0.04 0.04 0.04 0.04 0.04 0.04 0.05 0.05 0.05 0.07
0.02 0.02 0.02 0.01 0.02 0.05 0.06 0.03 0.02 0.01 0.02 0.02 0.03 0.02 0.01 0.01 0.02 0.02 0.02 0.02 0.01 0.01 0.01 0.01 0.01 0.01 0.02 0.02 0.01 0.01 0.01 0.02 0.02 0.03 0.02 0.02 0.04 0.04 0.04 0.05 0.05 0.05 0.05
0.06 0.03 0.03 0.03 0.03 0.08 0.11 0.05 0.03 0.03 0.03 0.03 0.03 0.02 0.02 0.02 0.03 0.03 0.02 0.02 0.01 0.01 0.01 0.01 0.01 0.01 0.01 0.01 0.01 0.00 0.01 0.01 0.01 0.02 0.02 0.02 0.03 0.03 0.04 0.06 0.06 0.05 0.05
0.07 0.06 0.04 0.03 0.03 0.03 0.03 0.02 0.02 0.03 0.03 0.03 0.03 0.02 0.03 0.03 0.04 0.03 0.02 0.02 0.02 0.01 0.02 0.02 0.02 0.02 0.01 0.01 0.01 0.00 0.00 0.01 0.01 0.02 0.02 0.03 0.04 0.06 0.07 0.07 0.07 0.08 0.08
0.03 0.03 0.03 0.02 0.03 0.03 0.03 0.03 0.03 0.03 0.03 0.03 0.04 0.04 0.04 0.03 0.03 0.03 0.03 0.03 0.03 0.03 0.03 0.03 0.03 0.02 0.02 0.01 0.01 0.00 0.01 0.02 0.02 0.01 0.01 0.03 0.05 0.08 0.10 0.10 0.09 0.08 0.09
0.03 0.03 0.03 0.02 0.04 0.12 0.12 0.08 0.04 0.03 0.03 0.04 0.04 0.03 0.03 0.03 0.04 0.04 0.04 0.04 0.04 0.03 0.03 0.03 0.03 0.02 0.02 0.02 0.01 0.01 0.01 0.01 0.02 0.02 0.02 0.04 0.06 0.07 0.09 0.09 0.08 0.08 0.09
0.02 0.03 0.02 0.03 0.03 0.06 0.09 0.06 0.04 0.02 0.03 0.04 0.04 0.04 0.04 0.06 0.07 0.05 0.06 0.05 0.04 0.03 0.03 0.03 0.03 0.02 0.01 0.01 0.01 0.02 0.02 0.01 0.01 0.02 0.04 0.07 0.07 0.06 0.05 0.05 0.05 0.05 0.07
0.02 0.03 0.04 0.05 0.05 0.04 0.05 0.04 0.04 0.04 0.03 0.03 0.02 0.02 0.04 0.05 0.05 0.05 0.05 0.04 0.04 0.03 0.03 0.03 0.02 0.01 0.00 0.01 0.01 0.03 0.03 0.02 0.01 0.02 0.03 0.03 0.03 0.03 0.03 0.03 0.04 0.04 0.04
0.03 0.03 0.06 0.10 0.09 0.10 0.09 0.05 0.05 0.04 0.03 0.03 0.03 0.04 0.04 0.04 0.03 0.04 0.04 0.03 0.03 0.02 0.02 0.01 0.01 0.01 0.01 0.01 0.02 0.03 0.03 0.03 0.02 0.01 0.01 0.01 0.01 0.01 0.01 0.02 0.02 0.03 0.03
0.03 0.02 0.05 0.10 0.09 0.12 0.11 0.09 0.07 0.05 0.05 0.05 0.06 0.07 0.06 0.06 0.05 0.04 0.03 0.03 0.02 0.01 0.01 0.01 0.02 0.03 0.03 0.03 0.02 0.03 0.03 0.03 0.03 0.02 0.01 0.01 0.01 0.01 0.01 0.01 0.02 0.02 0.01
0.06 0.04 0.03 0.06 0.07 0.08 0.09 0.07 0.05 0.05 0.06 0.05 0.06 0.07 0.06 0.05 0.04 0.03 0.02 0.02 0.01 0.01 0.01 0.01 0.02 0.03 0.02 0.02 0.02 0.02 0.01 0.02 0.03 0.04 0.04 0.03 0.02 0.01 0.01 0.01 0.01 0.01 0.01
0.05 0.03 0.03 0.04 0.05 0.05 0.05 0.04 0.04 0.04 0.03 0.05 0.06 0.06 0.05 0.04 0.03 0.02 0.01 0.01 0.01 0.01 0.01 0.01 0.01 0.01 0.01 0.01 0.01 0.01 0.01 0.02 0.03 0.05 0.06 0.04 0.02 0.01 0.00 0.01 0.01 0.01 0.01
0.01 0.01 0.02 0.03 0.03 0.03 0.02 0.02 0.02 0.02 0.02 0.04 0.06 0.07 0.06 0.03 0.03 0.02 0.01 0.01 0.01 0.01 0.01 0.01 0.01 0.01 0.01 0.01 0.01 0.01 0.01 0.02 0.02 0.02 0.02 0.02 0.01 0.01 0.00 0.00 0.00 0.01 0.01
0.03 0.04 0.04 0.05 0.04 0.04 0.03 0.02 0.02 0.02 0.03 0.04 0.05 0.06 0.06 0.05 0.04 0.03 0.02 0.02 0.02 0.02 0.01 0.01 0.02 0.02 0.01 0.01 0.01 0.01 0.01 0.01 0.01 0.01 0.01 0.01 0.01 0.01 0.00 0.01 0.01 0.01 0.02
0.08 0.07 0.05 0.04 0.04 0.03 0.02 0.02 0.02 0.03 0.04 0.04 0.05 0.06 0.06 0.06 0.05 0.05 0.04 0.03 0.02 0.03 0.03 0.03 0.02 0.01 0.01 0.01 0.01 0.01 0.01 0.01 0.01 0.00 0.01 0.01 0.01 0.01 0.01 0.01 0.01 0.01 0.02
MSLP
1007.13 1007.33 1007.51 1007.68 1007.84 1008.03 1008.28 1008.62 1009.08 1009.64 1010.28 1010.93 1011.55 1012.07 1012.46 1012.69 1012.78 1012.75 1012.66 1012.56 1012.51 1012.55 1012.69 1012.96 1013.33 1013.79 1014.32 1014.90 1015.51 1016.13 1016.74 1017.34 1017.90 1018.40 1018.82 1019.15 1019.36 1019.47 1019.47 1019.39 1019.26 1019.10 1018.96
1006.52 1006.74 1006.96 1007.15 1007.32 1007.50 1007.74 1008.08 1008.55 1009.14 1009.84 1010.57 1011.27 1011.87 1012.32 1012.59 1012.68 1012.64 1012.52 1012.39 1012.30 1012.31 1012.45 1012.72 1013.11 1013.59 1014.13 1014.71 1015.30 1015.90 1016.49 1017.08 1017.64 1018.18 1018.68 1019.10 1019.44 1019.67 1019.80 1019.83 1019.78 1019.68 1019.56
1005.74 1006.01 1006.27 1006.50 1006.70 1006.90 1007.14 1007.48 1007.96 1008.58 1009.31 1010.10 1010.87 1011.55 1012.06 1012.38 1012.50 1012.48 1012.35 1012.20 1012.11 1012.11 1012.24 1012.51 1012.90 1013.38 1013.91 1014.46 1015.01 1015.57 1016.12 1016.68 1017.24 1017.81 1018.36 1018.88 1019.33 1019.70 1019.96 1020.11 1020.16 1020.15 1020.08
1004.78 1005.09 1005.42 1005.72 1005.97 1006.20 1006.47 1006.83 1007.32 1007.96 1008.72 1009.54 1010.36 1011.10 1011.67 1012.05 1012.23 1012.24 1012.14 1012.01 1011.92 1011.93 1012.06 1012.33 1012.71 1013.16 1013.66 1014.17 1014.68 1015.18 1015.69 1016.20 1016.75 1017.32 1017.91 1018.50 1019.04 1019.53 1019.91 1020.19 1020.36 1020.44 1020.45
1003.67 1004.03 1004.44 1004.82 1005.16 1005.46 1005.78 1006.16 1006.67 1007.31 1008.08 1008.93 1009.78 1010.56 1011.19 1011.64 1011.88 1011.94 1011.90 1011.81 1011.75 1011.77 1011.91 1012.17 1012.54 1012.97 1013.43 1013.90 1014.36 1014.80 1015.25 1015.72 1016.23 1016.78 1017.38 1018.00 1018.61 1019.18 1019.67 1020.06 1020.35 1020.53 1020.63
1002.46 1002.90 1003.41 1003.90 1004.34 1004.74 1005.12 1005.54 1006.07 1006.71 1007.48 1008.33 1009.19 1010.00 1010.68 1011.18 1011.49 1011.63 1011.65 1011.62 1011.60 1011.65 1011.80 1012.06 1012.41 1012.81 1013.25 1013.68 1014.09 1014.48 1014.87 1015.29 1015.74 1016.26 1016.83 1017.45 1018.08 1018.69 1019.25 1019.73 1020.12 1020.41 1020.62
1001.28 1001.80 1002.42 1003.04 1003.60 1004.11 1004.57 1005.04 1005.58 1006.22 1006.97 1007.80 1008.66 1009.48 1010.19 1010.74 1011.12 1011.34 1011.43 1011.46 1011.49 1011.57 1011.74 1012.00 1012.33 1012.72 1013.12 1013.52 1013.89 1014.24 1014.59 1014.95 1015.35 1015.80 1016.32 1016.90 1017.51 1018.12 1018.71 1019.25 1019.72 1020.12 1020.44
1000.22 1000.84 1001.58 1002.33 1003.03 1003.64 1004.19 1004.71 1005.27 1005.90 1006.62 1007.42 1008.25 1009.06 1009.79 1010.38 1010.82 1011.11 1011.27 1011.37 1011.45 1011.56 1011.74 1012.00 1012.32 1012.69 1013.07 1013.45 1013.80 1014.12 1014.43 1014.74 1015.08 1015.47 1015.91 1016.42 1016.97 1017.55 1018.14 1018.71 1019.24 1019.72 1020.14
999.38 1000.10 1000.96 1001.84 1002.66 1003.38 1004.00 1004.57 1005.14 1005.75 1006.44 1007.19 1007.99 1008.78 1009.51 1010.13 1010.61 1010.96 1011.19 1011.34 1011.47 1011.61 1011.80 1012.05 1012.37 1012.72 1013.09 1013.45 1013.79 1014.10 1014.39 1014.66 1014.95 1015.27 1015.64 1016.06 1016.54 1017.06 1017.62 1018.18 1018.75 1019.29 1019.80
998.82 999.63 1000.59 1001.58 1002.50 1003.31 1003.99 1004.60 1005.17 1005.76 1006.41 1007.12 1007.87 1008.63 1009.35 1009.98 1010.50 1010.89 1011.18 1011.38 1011.55 1011.72 1011.91 1012.16 1012.46 1012.80 1013.16 1013.52 1013.86 1014.17 1014.45 1014.70 1014.96 1015.22 1015.52 1015.86 1016.25 1016.70 1017.21 1017.75 1018.32 1018.91 1019.49
998.56 999.44 1000.47 1001.52 1002.50 1003.36 1004.09 1004.72 1005.29 1005.86 1006.47 1007.14 1007.84 1008.57 1009.27 1009.91 1010.45 1010.88 1011.21 1011.46 1011.66 1011.85 1012.05 1012.30 1012.58 1012.91 1013.27 1013.62 1013.97 1014.29 1014.57 1014.83 1015.06 1015.29 1015.53 1015.80 1016.12 1016.50 1016.95 1017.45 1018.01 1018.62 1019.23
998.56 999.46 1000.50 1001.57 1002.57 1003.45 1004.20 1004.84 1005.41 1005.97 1006.55 1007.17 1007.84 1008.53 1009.22 1009.86 1010.41 1010.88 1011.25 1011.54 1011.77 1011.98 1012.19 1012.43 1012.71 1013.02 1013.37 1013.73 1014.08 1014.41 1014.71 1014.98 1015.21 1015.43 1015.64 1015.86 1016.12 1016.44 1016.83 1017.29 1017.82 1018.41 1019.04
998.75 999.61 1000.61 1001.64 1002.61 1003.48 1004.22 1004.87 1005.44 1005.99 1006.56 1007.16 1007.81 1008.48 1009.15 1009.79 1010.36 1010.85 1011.26 1011.59 1011.85 1012.08 1012.31 1012.54 1012.81 1013.11 1013.45 1013.80 1014.16 1014.51 1014.83 1015.12 1015.36 1015.57 1015.77 1015.97 1016.19 1016.46 1016.80 1017.22 1017.71 1018.27 1018.88
999.05 999.82 1000.72 1001.66 1002.56 1003.39 1004.11 1004.76 1005.34 1005.90 1006.48 1007.08 1007.71 1008.37 1009.03 1009.67 1010.26 1010.78 1011.22 1011.59 1011.89 1012.15 1012.39 1012.63 1012.89 1013.18 1013.50 1013.85 1014.20 1014.56 1014.89 1015.19 1015.46 1015.69 1015.89 1016.08 1016.28 1016.52 1016.81 1017.18 1017.63 1018.15 1018.72
999.39 1000.02 1000.77 1001.58 1002.39 1003.15 1003.86 1004.51 1005.11 1005.70 1006.29 1006.91 1007.55 1008.20 1008.87 1009.51 1010.11 1010.66 1011.13 1011.54 1011.88 1012.17 1012.44 1012.68 1012.94 1013.22 1013.52 1013.85 1014.20 1014.55 1014.88 1015.20 1015.48 1015.72 1015.94 1016.13 1016.33 1016.55 1016.81 1017.14 1017.54 1018.00 1018.52
999.70 1000.16 1000.74 1001.41 1002.11 1002.81 1003.50 1004.16 1004.80 1005.42 1006.05 1006.69 1007.34 1008.01 1008.68 1009.32 1009.94 1010.51 1011.02 1011.46 1011.84 1012.17 1012.46 1012.73 1012.98 1013.25 1013.53 1013.83 1014.15 1014.48 1014.81 1015.12 1015.41 1015.67 1015.90 1016.10 1016.30 1016.51 1016.76 1017.04 1017.39 1017.80 1018.25
999.95 1000.23 1000.65 1001.19 1001.79 1002.44 1003.11 1003.79 1004.47 1005.14 1005.81 1006.48 1007.15 1007.83 1008.49 1009.14 1009.77 1010.35 1010.89 1011.37 1011.79 1012.16 1012.48 1012.76 1013.02 1013.27 1013.52 1013.79 1014.08 1014.37 1014.68 1014.98 1015.26 1015.53 1015.77 1015.99 1016.19 1016.40 1016.63 1016.89 1017.19 1017.54 1017.93
1000.13 1000.27 1000.56 1000.98 1001.51 1002.12 1002.79 1003.49 1004.21 1004.92 1005.63 1006.33 1007.01 1007.68 1008.34 1008.99 1009.61 1010.21 1010.76 1011.27 1011.73 1012.13 1012.48 1012.77 1013.03 1013.27 1013.50 1013.73 1013.97 1014.23 1014.50 1014.78 1015.05 1015.32 1015.56 1015.79 1016.01 1016.22 1016.44 1016.68 1016.95 1017.24 1017.58
1000.27 1000.31 1000.51 1000.86 1001.35 1001.94 1002.61 1003.33 1004.07 1004.81 1005.54 1006.24 1006.93 1007.59 1008.23 1008.86 1009.47 1010.06 1010.62 1011.15 1011.63 1012.06 1012.43 1012.74 1013.00 1013.23 1013.43 1013.63 1013.83 1014.05 1014.29 1014.54 1014.80 1015.05 1015.31 1015.54 1015.77 1015.99 1016.21 1016.44 1016.68 1016.94 1017.22
1000.41 1000.42 1000.58 1000.90 1001.36 1001.94 1002.60 1003.33 1004.07 1004.82 1005.53 1006.22 1006.88 1007.51 1008.11 1008.71 1009.30 1009.87 1010.44 1010.97 1011.46 1011.90 1012.29 1012.61 1012.87 1013.09 1013.28 1013.45 1013.63 1013.81 1014.02 1014.25 1014.49 1014.75 1015.00 1015.25 1015.49 1015.72 1015.95 1016.17 1016.40 1016.63 1016.88
1000.60 1000.63 1000.80 1001.12 1001.57 1002.13 1002.78 1003.48 1004.20 1004.90 1005.58 1006.22 1006.82 1007.40 1007.96 1008.51 1009.06 1009.60 1010.15 1010.68 1011.17 1011.61 1012.00 1012.33 1012.60 1012.81 1013.00 1013.16 1013.32 1013.49 1013.68 1013.90 1014.14 1014.39 1014.65 1014.92 1015.17 1015.41 1015.65 1015.88 1016.10 1016.33 1016.55
1000.92 1001.01 1001.21 1001.53 1001.97 1002.51 1003.11 1003.75 1004.39 1005.02 1005.62 1006.18 1006.71 1007.21 1007.71 1008.20 1008.70 1009.21 1009.73 1010.23 1010.71 1011.15 1011.54 1011.87 1012.14 1012.36 1012.54 1012.71 1012.87 1013.05 1013.25 1013.47 1013.72 1013.98 1014.25 1014.53 1014.79 1015.05 1015.30 1015.54 1015.77 1015.99 1016.21
1001.41 1001.57 1001.81 1002.13 1002.54 1003.02 1003.54 1004.08 1004.62 1005.13 1005.62 1006.08 1006.51 1006.93 1007.34 1007.77 1008.22 1008.68 1009.16 1009.63 1010.08 1010.51 1010.88 1011.21 1011.48 1011.71 1011.91 1012.10 1012.28 1012.48 1012.70 1012.95 1013.21 1013.49 1013.78 1014.06 1014.34 1014.61 1014.87 1015.12 1015.35 1015.58 1015.80
1002.10 1002.32 1002.58 1002.89 1003.24 1003.63 1004.03 1004.44 1004.83 1005.21 1005.56 1005.89 1006.22 1006.55 1006.88 1007.25 1007.63 1008.04 1008.47 1008.90 1009.32 1009.71 1010.06 1010.38 1010.65 1010.90 1011.12 1011.34 1011.56 1011.80 1012.05 1012.33 1012.62 1012.92 1013.22 1013.51 1013.80 1014.07 1014.33 1014.58 1014.82 1015.06 1015.28
1003.00 1003.24 1003.49 1003.75 1004.02 1004.28 1004.55 1004.80 1005.03 1005.25 1005.46 1005.67 1005.88 1006.12 1006.38 1006.68 1007.00 1007.36 1007.73 1008.11 1008.47 1008.82 1009.15 1009.45 1009.72 1009.98 1010.23 1010.48 1010.75 1011.03 1011.32 1011.63 1011.95 1012.26 1012.57 1012.86 1013.14 1013.40 1013.65 1013.90 1014.14 1014.38 1014.62
1004.06 1004.29 1004.50 1004.68 1004.84 1004.96 1005.07 1005.15 1005.23 1005.29 1005.37 1005.46 1005.57 1005.73 1005.92 1006.15 1006.42 1006.72 1007.03 1007.34 1007.66 1007.96 1008.24 1008.51 1008.77 1009.04 1009.31 1009.59 1009.90 1010.22 1010.55 1010.88 1011.22 1011.54 1011.84 1012.11 1012.37 1012.61 1012.84 1013.06 1013.30 1013.53 1013.78
Thickness
5808 5809 5808 5806 5803 5800 5797 5795 5792 5790 5788 5784 5781 5778 5776 5776 5775 5775 5774 5774 5772 5770 5768 5766 5764 5762 5759 5757 5755 5752 5749 5746 5744 5739 5735 5735 5736 5735 5734 5733 5732 5730 5729
5806 5807 5807 5806 5803 5800 5798 5796 5794 5791 5789 5787 5784 5782 5779 5777 5776 5775 5774 5774 5772 5771 5769 5766 5764 5762 5759 5757 5754 5751 5747 5744 5744 5738 5731 5726 5726 5729 5732 5731 5729 5728 5727
5808 5808 5807 5805 5804 5801 5799 5799 5796 5794 5791 5789 5786 5782 5779 5776 5774 5773 5772 5773 5772 5771 5769 5767 5764 5762 5760 5756 5754 5751 5747 5742 5742 5742 5735 5725 5720 5722 5725 5726 5726 5726 5725
5813 5810 5808 5807 5806 5805 5803 5801 5797 5794 5792 5789 5785 5780 5775 5771 5772 5772 5772 5772 5771 5770 5768 5766 5764 5761 5759 5757 5754 5752 5749 5745 5741 5741 5740 5737 5732 5723 5718 5719 5722 5722 5722
5816 5813 5812 5811 5810 5808 5805 5801 5798 5795 5792 5789 5785 5781 5776 5774 5773 5773 5771 5770 5769 5768 5767 5765 5763 5760 5758 5756 5754 5752 5750 5746 5743 5740 5739 5736 5732 5729 5720 5714 5715 5717 5718
5819 5817 5816 5813 5810 5808 5805 5802 5797 5794 5792 5789 5786 5782 5778 5775 5771 5770 5768 5767 5766 5765 5765 5764 5762 5760 5757 5756 5754 5752 5749 5746 5744 5742 5739 5735 5731 5726 5722 5716 5712 5711 5714
5818 5816 5813 5811 5809 5807 5804 5802 5798 5793 5792 5789 5786 5783 5780 5777 5773 5770 5768 5766 5764 5763 5763 5763 5760 5759 5757 5755 5753 5751 5748 5746 5744 5742 5739 5737 5735 5731 5726 5719 5713 5710 5710
5818 5817 5816 5813 5811 5808 5805 5802 5798 5794 5792 5790 5786 5784 5781 5778 5775 5772 5770 5767 5764 5763 5763 5762 5760 5759 5757 5754 5752 5749 5746 5744 5742 5741 5739 5736 5734 5732 5727 5721 5714 5707 5705
5819 5818 5816 5814 5812 5809 5806 5803 5798 5795 5792 5790 5787 5784 5782 5779 5776 5773 5771 5768 5766 5764 5763 5761 5759 5757 5755 5753 5750 5747 5744 5742 5740 5738 5737 5734 5733 5731 5728 5724 5719 5711 5702
5818 5817 5816 5815 5813 5811 5808 5804 5800 5796 5793 5790 5787 5785 5781 5779 5776 5773 5770 5768 5766 5764 5762 5759 5758 5755 5753 5751 5748 5745 5742 5739 5738 5736 5734 5732 5730 5728 5726 5723 5719 5715 5708
5817 5816 5816 5816 5814 5811 5807 5802 5799 5795 5792 5789 5786 5784 5781 5778 5775 5772 5770 5767 5765 5763 5760 5758 5755 5753 5750 5748 5745 5742 5739 5737 5734 5733 5731 5728 5727 5724 5722 5720 5716 5712 5708
5817 5817 5816 5814 5811 5808 5805 5802 5799 5795 5793 5790 5786 5782 5779 5776 5773 5770 5768 5766 5763 5761 5759 5756 5753 5750 5747 5744 5741 5738 5736 5733 5730 5728 5726 5724 5724 5720 5718 5715 5712 5709 5706
5814 5812 5811 5810 5808 5806 5805 5802 5799 5796 5793 5789 5784 5780 5777 5774 5771 5768 5766 5764 5761 5759 5756 5754 5750 5747 5744 5741 5738 5735 5732 5730 5727 5725 5723 5721 5719 5715 5713 5711 5708 5705 5703
5809 5807 5806 5807 5807 5806 5804 5802 5798 5796 5792 5787 5783 5779 5776 5773 5770 5767 5764 5762 5759 5756 5753 5750 5747 5743 5740 5737 5734 5731 5728 5725 5723 5721 5719 5717 5715 5712 5710 5707 5704 5701 5697
5803 5804 5803 5804 5804 5803 5801 5800 5797 5794 5790 5785 5780 5777 5775 5772 5767 5764 5761 5758 5755 5752 5749 5745 5742 5739 5737 5734 5730 5727 5724 5720 5718 5716 5715 5713 5712 5710 5707 5704 5700 5697 5692
5801 5801 5802 5801 5801 5800 5799 5796 5793 5791 5787 5782 5777 5774 5771 5767 5763 5760 5756 5753 5749 5746 5743 5739 5736 5734 5732 5730 5726 5723 5719 5715 5712 5710 5709 5708 5706 5704 5702 5700 5698 5695 5689
5800 5800 5799 5799 5799 5799 5797 5793 5791 5787 5783 5778 5774 5770 5766 5762 5759 5756 5751 5747 5743 5740 5736 5733 5731 5728 5726 5724 5721 5718 5714 5710 5707 5705 5703 5703 5701 5698 5696 5694 5692 5689 5687
5797 5797 5798 5797 5797 5796 5794 5791 5787 5782 5778 5774 5770 5767 5762 5758 5753 5750 5746 5742 5738 5735 5731 5728 5725 5722 5720 5718 5715 5712 5708 5705 5702 5700 5698 5696 5693 5691 5689 5686 5684 5681 5680
5795 5795 5795 5794 5792 5791 5789 5786 5781 5776 5772 5769 5766 5763 5759 5754 5749 5745 5742 5738 5734 5731 5727 5723 5720 5716 5714 5713 5710 5706 5702 5698 5696 5694 5692 5690 5688 5686 5683 5679 5675 5673 5672
5790 5790 5789 5788 5786 5784 5782 5778 5774 5770 5767 5765 5763 5760 5756 5751 5747 5743 5739 5735 5731 5727 5723 5718 5715 5712 5709 5707 5704 5701 5697 5693 5690 5687 5686 5684 5682 5680 5676 5673 5669 5665 5664
5783 5783 5782 5780 5778 5777 5775 5769 5766 5764 5764 5762 5758 5754 5750 5747 5744 5739 5735 5730 5726 5721 5717 5713 5709 5707 5704 5701 5698 5695 5691 5688 5684 5681 5678 5677 5675 5673 5671 5668 5664 5662 5659
5771 5773 5773 5771 5772 5771 5768 5763 5761 5761 5759 5756 5752 5748 5745 5742 5739 5734 5729 5724 5720 5715 5710 5706 5703 5700 5698 5695 5692 5689 5686 5683 5678 5675 5673 5671 5669 5667 5664 5662 5659 5656 5653
5761 5762 5762 5761 5761 5761 5760 5756 5756 5755 5752 5749 5745 5742 5739 5736 5734 5729 5724 5719 5714 5709 5704 5700 5696 5693 5691 5689 5686 5682 5680 5677 5673 5670 5668 5665 5662 5660 5657 5655 5653 5649 5646
5750 5751 5751 5749 5749 5750 5751 5750 5749 5749 5745 5741 5737 5735 5731 5729 5726 5723 5719 5714 5709 5704 5700 5696 5692 5688 5685 5682 5679 5675 5672 5669 5666 5663 5660 5658 5655 5652 5650 5647 5645 5642 5639
5738 5740 5739 5738 5739 5741 5741 5742 5741 5740 5736 5733 5730 5726 5724 5721 5718 5715 5712 5709 5707 5703 5698 5694 5691 5685 5680 5679 5676 5671 5667 5664 5660 5656 5652 5649 5646 5643 5641 5639 5637 5634 5632
5728 5729 5728 5729 5730 5731 5732 5733 5733 5731 5728 5724 5722 5719 5717 5714 5710 5706 5702 5700 5698 5696 5693 5690 5686 5682 5679 5676 5671 5666 5662 5658 5654 5649 5645 5642 5639 5636 5634 5632 5629 5627 5626